Regional Weather Roundup
Issued by NWS

Home | Current Version | Previous Version | Graphics & Text | Print | Product List | Glossary On
Versions: 1 2 3 4 5 6 7 8 9 10 11 12 13 14 15 16 17 18 19 20 21 22 23 24 25 26 27 28 29 30 31 32 33 34 35 36 37 38 39 40 41 42 43 44 45 46 47 48 49 50
000
ASUS43 KDTX 212101
RWRMI
MICHIGAN HOURLY REGIONAL WEATHER ROUNDUP
NATIONAL WEATHER SERVICE DETROIT/PONTIAC MI
400 PM EST SAT JAN 21 2017

NOTE: "FAIR" INDICATES FEW OR NO CLOUDS BELOW 12,000 FEET WITH NO
SIGNIFICANT WEATHER AND/OR OBSTRUCTION TO VISIBILITY.

MIZ047>049-052>055-059>063-066>070-074>076-081>083-212200-
SOUTHEAST LOWER MICHIGAN

CITY           SKY/WX    TMP DP  RH WIND       PRES   REMARKS
ADRIAN         PTSUNNY   57  52  83 S10       29.59F
ALMA           CLOUDY    49  48  98 E7        29.55F FOG
ANN ARBOR      CLOUDY    58  53  84 S8        29.59S
BAD AXE        FOG       44  44 100 S7        29.62S VSB<1/4
CARO           CLOUDY    49  48  99 SE5       29.59F FOG
DETROIT CITY   MOSUNNY   55  52  89 S7        29.61F
DETROIT        PTSUNNY   57  52  83 SE6       29.61S
FLINT          CLOUDY    53  50  89 SE5       29.58F
GROSSE ILE     CLOUDY    42  42  97 S3        29.60F FOG
HILLSDALE      SUNNY     55  50  82 SE10      29.56F
HOWELL         CLOUDY    55  50  85 SE8       29.57F

CITY           SKY/WX    TMP DP  RH WIND       PRES   REMARKS
JACKSON        SUNNY     58  49  72 S14       29.55F
LAMBERTVILLE   CLOUDY    60  53  77 S6        29.60S
LANSING        SUNNY     55  49  80 SE14      29.55F
LAPEER         CLOUDY    49  49  97 SE5       29.61S FOG
MASON          SUNNY     56  53  90 SE7       29.55F
MONROE         MOSUNNY   55  52  91 SE8       29.59F
PONTIAC        CLOUDY    50  49  96 SE5       29.58F FOG
PORT HOPE        N/A     37  37 100 SE6       29.61S WCI  32
PORT HURON     PTSUNNY   52  50  93 SE6       29.62F
TRI CITIES     FOG       46  46 100 E7        29.58F VSB 1/16
MIDLAND        FOG       44  43  97 E5        29.57F VSB<1/4
TROY           CLOUDY    54  49  83 E3        29.62F HAZE
SAGINAW HB     CLOUDY    48  45  87 SE6       29.58F FOG
$$
MIZ043>046-050>051-056>058-064>065-071>073-077>080-212200-
SOUTHWEST LOWER MICHIGAN

CITY           SKY/WX    TMP DP  RH WIND       PRES   REMARKS
BATTLE CREEK   SUNNY     60  50  69 S13       29.52F
BENTON HARBOR  SUNNY     62  49  62 S13       29.49R
BIG RAPIDS     FOG       44  43  97 SE8       29.52F VSB<1/4
COLDWATER      SUNNY     59  51  75 SE12G20   29.54F
FREMONT        CLOUDY    50  50  99 E5        29.49S FOG
HOLLAND        SUNNY     62  49  62 S10       29.49R
GRAND RAPIDS   MOSUNNY   60  47  61 SE14      29.48F
IONIA          FAIR      55  51  85 SE8       29.51F
KALAMAZOO      SUNNY     60  47  61 S13G20    29.51F
LUDINGTON      CLOUDY    48  48 100 E6        29.48S FOG
MARSHALL       SUNNY     60  50  69 SE10      29.53F
MOUNT PLEASANT FOG       46  45  99 E7        29.55F VSB<1/4
MUSKEGON       MOSUNNY   60  46  59 S12G21    29.49S
SOUTH HAVEN    SUNNY     61  49  65 S8        29.49S
$$
MIZ016>042-212200-
NORTHERN LOWER MICHIGAN

CITY           SKY/WX    TMP DP  RH WIND       PRES   REMARKS
ALPENA         FOG       37  36  96 E9        29.63R VSB 1/4 WCI  30
BEAVER ISLAND  CLOUDY    36  36 100 E9        29.55S FOG     WCI  29
BELLAIRE       CLOUDY    46  43  90 E5        29.52F
CADILLAC       FOG       39  38  97 SE7       29.52S VSB<1/4 WCI  34
CHARLEVOIX     PTSUNNY   44  42  93 E7        29.55F
FRANKFORT      CLOUDY    46  46  97 SE3       29.50S
GAYLORD        CLOUDY    42  38  85 VRB5      29.55F FOG
GRAYLING       FOG       40  40  99 E7        29.56F VSB<1/4
HARBOR SPRINGS CLOUDY    39  38  97 E12       29.55F WCI  31
HOUGHTON LAKE  FOG       40  40 100 SE7       29.56S VSB 1/4
MANISTEE       CLOUDY    46  45  96 E8        29.48S FOG
OSCODA         FOG       38  37  97 E5        29.62S VSB<1/4 WCI  35
PELLSTON       CLOUDY    39  35  86 E6        29.57F WCI  35
ROGERS CITY    CLOUDY    38  37  95 SE3       29.62S FOG
TRAVERSE CITY  CLOUDY    47  42  83 VRB3      29.51R
$$
MIZ007>008-015-212200-
EASTERN UPPER MICHIGAN

CITY           SKY/WX    TMP DP  RH WIND       PRES   REMARKS
KINROSS        CLOUDY    35  34  96 E12       29.60S FOG     WCI  27
MACKINAC ISLAN FOG       35  35 100 E15G21    29.58F VSB<1/4 WCI  25
NEWBERRY       FOG       34  33  96 E7        29.56F VSB 1/2 WCI  28
S. S. MARIE    CLOUDY    36  34  92 E10       29.61S FOG     WCI  28
MUNISING         N/A     37  36  96 SE6       29.52F WCI  32
$$
MIZ004>006-011>014-085-212200-
CENTRAL UPPER MICHIGAN

CITY           SKY/WX    TMP DP  RH WIND       PRES   REMARKS
MANISTIQUE     FOG       35  34  98 E9        29.54R VSB 3/4 WCI  27
ESCANABA       MIX PCPN  35  35 100 NE5       29.51F VSB 1   WCI  31
SAWYER-GWINN   FOG       36  36 100 SE5       29.51R VSB 1/4 WCI  32
$$
MIZ001>003-009>011-084-212200-
WESTERN UPPER MICHIGAN

CITY           SKY/WX    TMP DP  RH WIND       PRES   REMARKS
IRON MOUNTAIN  FOG       35  33  92 E8        29.43F VSB 1/2 WCI  29
HOUGHTON       FOG       34  32  92 E14       29.49R VSB<1/4 WCI  25
COPPER HARBOR    N/A     37  35  92 CALM      29.52S
IRONWOOD       RAIN      37  36  96 NE7       29.43F FOG     WCI  32
$$

ABBREVIATIONS USED IN REMARKS
   TC - TEMPERATURE IN CELSIUS
  WCI - WIND CHILL INDEX
   HX - HEAT INDEX
  VSB - VISIBILITY





USA.gov is the U.S. government's official web portal to all federal, state and local government web resources and services.